Lambertville, MI

12:03 PM EDT on September 30, 2016 (GMT -0400)
Toledo Suburban Airport

Weather History for KDUH - November, 2012

Change the Weather History Date:

Thursday, November 1, 2012

  Actual Average (KTOL) Record (KTOL)
Temperature  
Mean Temperature 46 °F 47 °F  
Max Temperature 50 °F 57 °F 80 °F (1950)
Min Temperature 40 °F 38 °F 19 °F (1976)
Degree Days  
Heating Degree Days 20 18  
Month to date heating degree days 18  
Since 1 July heating degree days 544  
Cooling Degree Days 0 0  
Month to date cooling degree days 0  
Year to date cooling degree days 793  
Moisture  
Dew Point 31 °F    
Average Humidity 64    
Maximum Humidity 81    
Minimum Humidity 40    
Precipitation  
Precipitation 0.00 in 0.09 in 2.71 in (1982)
Month to date precipitation 0.09  
Year to date precipitation 28.79  
Snow  
Snow 0.00 in 0.00 in - ()
Month to date snowfall 0.0  
Since 1 July snowfall 0.2  
Since 1 September snowfall 0.2  
Snow Depth -    
Sea Level Pressure  
Sea Level Pressure 29.73 in    
Wind  
Wind Speed 7 mph (WNW)    
Max Wind Speed 14 mph    
Max Gust Speed 21 mph    
Visibility 10 miles    
Events      
T = Trace of Precipitation, MM = Missing Value Source: NWS Daily Summary

Daily Weather History Graph

Daily Weather History Graph

Search for Another Location

Airport or City:

Trip Planner

Search our weather history database for the weather conditions in past years. The results will help you decide how hot, cold, wet, or windy it might be!

Date:

Astronomy

Nov. 01, 2012 Rise Set
Actual Time 8:07 AM EDT 6:28 PM EDT
Civil Twilight 7:38 AM EDT 6:57 PM EDT
Nautical Twilight 7:05 AM EDT 7:30 PM EDT
Astronomical Twilight 6:33 AM EDT 8:02 PM EDT
Moon 8:22 PM EDT (11/1) 10:40 AM EDT (11/1)
Length of Visible Light 11h 18m
Length of Day
10h 21m
Waning Gibbous, 93% of the Moon is Illuminated
Nov 1
Waning Gibbous
Nov 6
Last Quarter
Nov 13
New
Nov 20
First Quarter
Nov 28
Full

Hourly Weather History & Observations

Time (EDT) Temp. Windchill Dew Point Humidity Pressure Visibility Wind Dir Wind Speed Gust Speed Precip Events Conditions
12:15 AM 41.4 °F 36.8 °F 36.0 °F 81% 29.69 in 10.0 mi WNW 6.9 mph - N/A   Overcast
12:35 AM 41.4 °F 37.6 °F 36.0 °F 81% 29.69 in 10.0 mi WNW 5.8 mph - N/A   Overcast
12:55 AM 41.5 °F 35.4 °F 35.8 °F 80% 29.69 in 10.0 mi WNW 10.4 mph - N/A   Overcast
1:15 AM 41.5 °F 37.1 °F 35.6 °F 79% 29.69 in 10.0 mi WNW 6.9 mph - N/A   Overcast
1:35 AM 41.5 °F 35.4 °F 35.6 °F 79% 29.69 in 10.0 mi WNW 10.4 mph 16.1 mph N/A   Overcast
1:55 AM 41.9 °F 36.9 °F 35.2 °F 77% 29.69 in 10.0 mi WNW 8.1 mph - N/A   Overcast
2:15 AM 41.9 °F 37.5 °F 35.4 °F 78% 29.69 in 10.0 mi WNW 6.9 mph - N/A   Overcast
2:35 AM 41.9 °F 37.5 °F 35.2 °F 77% 29.69 in 10.0 mi WNW 6.9 mph - N/A   Overcast
2:55 AM 42.1 °F 38.4 °F 35.4 °F 77% 29.69 in 10.0 mi WNW 5.8 mph - N/A   Overcast
3:15 AM 42.1 °F 39.2 °F 35.6 °F 78% 29.69 in 10.0 mi WNW 4.6 mph - N/A   Overcast
3:35 AM 42.3 °F 38.6 °F 35.2 °F 76% 29.69 in 10.0 mi WNW 5.8 mph - N/A   Overcast
3:55 AM 42.3 °F 38.6 °F 35.2 °F 76% 29.69 in 10.0 mi WNW 5.8 mph - N/A   Overcast
4:15 AM 42.3 °F 39.4 °F 35.2 °F 76% 29.69 in 10.0 mi WNW 4.6 mph - N/A   Overcast
4:35 AM 42.3 °F 37.9 °F 35.6 °F 77% 29.69 in 10.0 mi West 6.9 mph - N/A   Overcast
4:55 AM 42.4 °F 37.5 °F 35.6 °F 77% 29.69 in 10.0 mi WNW 8.1 mph - N/A   Overcast
5:15 AM 42.3 °F 38.6 °F 35.4 °F 77% 29.70 in 10.0 mi WNW 5.8 mph - N/A   Overcast
5:35 AM 42.3 °F 37.9 °F 35.2 °F 76% 29.70 in 10.0 mi WNW 6.9 mph - N/A   Overcast
6:15 AM 42.1 °F 37.7 °F 34.3 °F 74% 29.71 in 10.0 mi WNW 6.9 mph - N/A   Overcast
6:35 AM 41.9 °F 36.9 °F 34.7 °F 76% 29.71 in 10.0 mi WNW 8.1 mph - N/A   Overcast
6:55 AM 41.9 °F 38.2 °F 34.5 °F 75% 29.71 in 10.0 mi West 5.8 mph - N/A   Overcast
7:15 AM 41.9 °F 37.5 °F 34.5 °F 75% 29.71 in 10.0 mi West 6.9 mph - N/A   Overcast
7:35 AM 41.5 °F 37.1 °F 34.3 °F 76% 29.72 in 10.0 mi WNW 6.9 mph - N/A   Overcast
7:55 AM 41.5 °F 37.8 °F 33.8 °F 74% 29.72 in 10.0 mi WNW 5.8 mph - N/A   Overcast
8:15 AM 41.4 °F 38.4 °F 33.3 °F 73% 29.73 in 10.0 mi WNW 4.6 mph - N/A   Overcast
8:35 AM 41.2 °F 36.6 °F 33.3 °F 73% 29.73 in 10.0 mi NW 6.9 mph - N/A   Overcast
9:35 AM 41.2 °F 36.0 °F 33.8 °F 75% 29.75 in 10.0 mi NW 8.1 mph - N/A   Overcast
10:15 AM 41.0 °F 36.4 °F 33.8 °F 76% 29.75 in 10.0 mi WNW 6.9 mph - N/A   Overcast
10:35 AM 41.2 °F 38.2 °F 34.0 °F 76% 29.76 in 10.0 mi WNW 4.6 mph - N/A   Overcast
10:55 AM 41.4 °F 36.2 °F 34.0 °F 75% 29.76 in 10.0 mi WNW 8.1 mph - N/A   Overcast
11:15 AM 41.4 °F 36.8 °F 33.8 °F 74% 29.76 in 10.0 mi WNW 6.9 mph - N/A   Overcast
11:35 AM 41.5 °F 37.1 °F 32.9 °F 71% 29.76 in 10.0 mi NW 6.9 mph - N/A   Overcast
11:55 AM 41.2 °F 36.6 °F 32.7 °F 72% 29.77 in 10.0 mi WNW 6.9 mph - N/A   Overcast
12:15 PM 42.1 °F 37.7 °F 32.0 °F 67% 29.76 in 10.0 mi WNW 6.9 mph 16.1 mph N/A   Overcast
12:35 PM 42.6 °F 36.8 °F 31.6 °F 65% 29.76 in 10.0 mi NW 10.4 mph 16.1 mph N/A   Overcast
12:55 PM 43.0 °F 37.7 °F 31.8 °F 65% 29.76 in 10.0 mi WNW 9.2 mph - N/A   Overcast
1:15 PM 46.4 °F 41.5 °F 31.5 °F 56% 29.75 in 10.0 mi West 10.4 mph - N/A   Mostly Cloudy
1:35 PM 47.3 °F - 31.1 °F 53% 29.74 in 10.0 mi NW 9.2 mph 17.3 mph N/A   Scattered Clouds
2:15 PM 48.7 °F - 30.0 °F 48% 29.73 in 10.0 mi WNW 11.5 mph - N/A   Scattered Clouds
2:35 PM 49.1 °F - 29.8 °F 47% 29.72 in 10.0 mi West 12.7 mph 18.4 mph N/A   Clear
3:15 PM 50.4 °F - 29.1 °F 44% 29.71 in 10.0 mi West 13.8 mph 18.4 mph N/A   Mostly Cloudy
3:35 PM 49.1 °F - 28.4 °F 45% 29.71 in 10.0 mi West 12.7 mph 20.7 mph N/A   Mostly Cloudy
3:55 PM 50.0 °F - 28.2 °F 43% 29.71 in 10.0 mi West 11.5 mph 17.3 mph N/A   Scattered Clouds
4:35 PM 49.5 °F - 29.5 °F 46% 29.71 in 10.0 mi West 10.4 mph - N/A   Mostly Cloudy
4:55 PM 50.0 °F - 30.9 °F 48% 29.71 in 10.0 mi West 8.1 mph - N/A   Mostly Cloudy
5:15 PM 50.2 °F - 29.5 °F 45% 29.71 in 10.0 mi West 13.8 mph 18.4 mph N/A   Overcast
5:35 PM 48.7 °F - 25.2 °F 40% 29.72 in 10.0 mi West 11.5 mph 16.1 mph N/A   Mostly Cloudy
5:55 PM 47.1 °F - 29.7 °F 51% 29.73 in 10.0 mi West 11.5 mph - N/A   Scattered Clouds
6:15 PM 46.4 °F 42.9 °F 31.1 °F 55% 29.73 in 10.0 mi West 6.9 mph - N/A   Scattered Clouds
6:35 PM 45.5 °F 44.2 °F 26.8 °F 48% 29.74 in 10.0 mi WNW 3.5 mph - N/A   Mostly Cloudy
6:55 PM 44.6 °F 42.2 °F 26.4 °F 49% 29.75 in 10.0 mi West 4.6 mph - N/A   Overcast
7:15 PM 44.2 °F - 27.5 °F 52% 29.75 in 10.0 mi Calm Calm - N/A   Overcast
7:35 PM 44.2 °F 42.7 °F 28.2 °F 53% 29.76 in 10.0 mi WNW 3.5 mph - N/A   Overcast
7:55 PM 44.6 °F 41.4 °F 27.3 °F 51% 29.76 in 10.0 mi West 5.8 mph - N/A   Overcast
8:15 PM 44.6 °F 42.2 °F 27.1 °F 50% 29.77 in 10.0 mi WNW 4.6 mph - N/A   Overcast
8:35 PM 44.6 °F 40.2 °F 26.6 °F 49% 29.77 in 10.0 mi WNW 8.1 mph - N/A   Overcast
8:55 PM 43.9 °F 39.9 °F 25.3 °F 48% 29.77 in 10.0 mi WNW 6.9 mph - N/A   Overcast
9:15 PM 43.2 °F 39.0 °F 24.4 °F 48% 29.78 in 10.0 mi WNW 6.9 mph - N/A   Overcast
9:35 PM 42.8 °F 38.6 °F 23.9 °F 47% 29.78 in 10.0 mi WNW 6.9 mph - N/A   Overcast
9:54 PM 42.4 °F 39.6 °F 24.6 °F 49% 29.79 in 10.0 mi WNW 4.6 mph - N/A   Overcast
10:15 PM 41.9 °F 36.9 °F 25.5 °F 52% 29.79 in 10.0 mi WNW 8.1 mph - N/A   Overcast
10:35 PM 41.9 °F 36.9 °F 26.2 °F 54% 29.79 in 10.0 mi WNW 8.1 mph - N/A   Overcast
10:54 PM 41.5 °F 37.1 °F 26.6 °F 55% 29.80 in 10.0 mi WNW 6.9 mph - N/A   Overcast
11:15 PM 41.2 °F 36.6 °F 27.1 °F 57% 29.80 in 10.0 mi WNW 6.9 mph - N/A   Overcast
11:35 PM 41.0 °F 37.1 °F 27.3 °F 58% 29.80 in 10.0 mi West 5.8 mph - N/A   Overcast
11:55 PM 40.6 °F 37.5 °F 27.3 °F 59% 29.80 in 10.0 mi West 4.6 mph - N/A   Overcast